Location: *
(51.4660°N, 0.3360°W)
Time: 05:39:26
(UTC+00:00)

Cosmos 1624 Rocket - Pass Details

Date: 19 September 2019
Orbit: 757 x 784 km, 74.0° (Epoch: 20 October)

Event Time Altitude Azimuth Distance (km) Brightness Sun altitude
Rises 19:25:06 0° 180° (S) 3,206 7.0 -12.7°
Reaches altitude 10° 19:27:34 10° 173° (S) 2,283 6.2 -13.1°
Maximum altitude 19:32:23 41° 105° (ESE) 1,094 4.3 -13.8°
Drops below altitude 10° 19:37:14 10° 36° (NE) 2,298 6.3 -14.5°
Sets 19:39:43 0° 30° (NNE) 3,229 7.2 -14.8°
